#timestamp,LO_Frequency,Hit,StdDev 
1620693955.4,286047032.0,P
1620693975.3,286047031.8,P
1620693995.1,286047033.2,P
1620693996.0,286047033.2,Y
1620694015.8,286047000.3,P
1620694035.7,286047000.3,N
1620694055.5,286047002.4,N
1620694075.3,286046999.8,N
1620694095.2,286047002.3,N
1620694115.0,286047001.9,N
1620694115.9,286047001.9,N
1620694135.8,286047002.0,N
1620694155.6,286047002.1,N
1620694175.4,286047001.3,N
1620694195.3,286047003.3,N
1620694215.1,286047007.4,N
1620694235.9,286047006.1,N
1620694255.7,286047007.0,N
1620694275.5,286047005.3,N
1620694295.4,286047004.6,N
1620694315.2,286047007.0,N
1620694335.0,286047006.4,N
1620694335.9,286047006.4,N
1620694355.8,286047008.5,N
1620694375.6,286047011.9,N
1620694395.5,286047008.5,N
1620694415.3,286047008.4,N
1620694435.1,286047008.7,N
1620694455.9,286047008.7,N
1620694475.7,286047006.7,N
1620694495.5,286047006.6,N
1620694515.4,286047008.7,N
1620694535.2,286047008.2,N
1620694555.1,286047006.8,N
1620694556.0,286047006.8,N
1620694575.8,286047006.9,N
1620694595.6,286047008.4,N
1620694615.5,286047008.4,N
1620694635.3,286047007.8,N
1620694655.2,286047010.6,Y
1620694675.9,286047003.6,P
1620694695.7,286047003.8,N
1620694715.6,286047002.9,N
1620694735.4,286047003.2,N
1620694755.2,286047006.0,Y
1620694775.1,286047001.1,P
1620694776.0,286047001.1,N
1620694795.8,286047000.9,N
